Theta_e
319 319 323 324 321 313 316 318 316 317 317 318 318 318 314 314 316 321 320 322 322 325 328 328 322 324 326 332 333 334 333 332 333 333 331 332 333 332 331 330 327 327 327 323 324 321 318 316 317
319 322 325 325 317 315 314 314 317 316 317 318 318 316 314 313 316 318 319 321 319 317 321 323 323 321 329 332 332 333 332 330 331 330 330 331 331 330 331 331 330 328 326 325 322 321 318 316 315
320 321 323 315 310 315 314 315 315 316 317 318 315 314 314 312 315 313 316 320 318 316 316 316 315 315 316 321 332 332 331 329 324 324 324 329 329 329 330 331 330 327 327 324 323 320 319 315 314
320 322 320 313 316 315 314 314 315 315 318 316 315 311 311 311 311 311 313 315 317 318 316 315 314 314 314 317 320 331 333 332 331 327 324 320 323 327 328 329 330 329 329 327 323 322 321 319 313
319 319 314 315 315 315 313 315 316 313 315 314 315 311 310 309 310 310 310 311 311 312 313 314 315 316 315 317 323 324 326 332 333 332 330 328 324 324 326 327 327 328 329 328 323 326 329 332 325
319 316 315 314 315 314 314 316 315 313 313 313 312 310 309 307 308 308 309 308 307 307 307 308 308 308 310 311 313 315 318 322 324 327 330 330 329 327 324 325 326 326 326 328 327 326 332 331 333
316 312 316 315 313 315 315 316 314 312 312 313 313 308 306 306 306 306 307 307 306 306 306 306 307 307 307 307 306 307 309 313 319 322 324 326 325 325 326 324 324 325 326 327 327 328 329 328 327
317 312 317 315 314 316 315 316 314 314 312 312 312 307 306 304 305 306 306 306 306 306 306 306 306 306 306 306 306 306 306 305 307 313 321 323 323 323 323 323 325 322 322 327 327 327 327 327 327
319 315 317 315 316 315 315 314 312 312 311 307 308 306 303 303 305 305 306 306 306 305 304 303 302 302 301 301 301 301 302 305 306 306 307 314 324 326 324 324 324 323 322 325 329 327 326 326 326
316 314 317 314 314 314 315 314 313 309 306 304 303 302 303 304 305 306 305 305 304 302 301 299 299 299 299 299 299 299 299 299 300 301 302 304 308 319 323 325 326 326 325 322 326 328 326 325 325
314 313 315 315 315 315 314 313 312 308 307 306 304 302 303 304 304 303 302 300 298 297 296 296 296 296 296 297 297 297 297 297 297 298 298 299 301 303 310 322 324 325 327 327 324 327 326 326 325
315 315 316 315 315 314 313 313 309 309 308 307 304 304 303 303 302 301 300 298 297 297 296 295 295 295 296 297 297 297 296 296 296 296 296 297 298 299 302 312 321 324 325 325 327 325 324 324 325
315 315 315 315 315 314 314 312 308 305 305 304 303 302 302 301 301 299 297 297 296 295 294 294 294 294 295 296 296 295 295 295 296 296 296 295 296 297 297 298 306 318 321 324 324 326 327 325 325
315 315 314 315 315 314 311 308 309 305 303 302 302 302 301 300 300 298 297 296 296 294 293 293 293 293 294 295 295 295 295 295 295 296 296 295 295 295 296 296 297 299 314 320 321 324 325 327 326
314 313 312 313 313 313 312 308 308 307 303 302 301 301 300 299 297 297 296 296 295 294 293 292 293 293 294 294 294 294 294 294 294 294 294 294 294 294 294 296 295 295 298 307 318 320 323 325 327
313 312 313 313 312 312 310 310 306 305 303 302 300 299 298 297 296 296 295 295 295 293 292 292 292 293 293 294 293 293 293 294 294 294 293 293 293 293 293 294 294 295 295 296 303 315 318 322 325
308 313 311 310 311 311 309 308 305 304 303 301 299 298 297 296 295 295 295 295 294 292 292 292 292 292 293 293 293 293 293 293 293 292 292 293 293 292 293 294 294 296 294 294 295 302 310 318 322
313 309 308 309 310 310 309 309 304 303 301 300 299 298 296 295 295 295 295 295 294 292 291 291 292 292 292 292 292 292 292 292 292 291 291 291 291 291 291 293 293 294 294 295 294 295 302 308 316
310 309 308 308 309 309 308 310 304 304 300 298 298 297 296 295 295 295 294 294 293 292 291 291 291 291 291 291 291 291 291 291 291 291 291 291 290 289 290 293 293 295 296 296 295 295 295 300 309
309 310 309 308 308 308 307 307 306 303 301 300 297 296 295 295 295 294 294 293 292 291 290 290 290 290 290 290 290 290 290 290 290 291 290 291 290 289 288 289 292 292 293 293 296 295 296 297 302
308 310 308 308 307 304 304 304 306 302 302 298 296 297 296 295 295 294 293 293 291 290 290 290 290 290 290 290 290 290 290 290 290 290 290 289 289 289 287 287 288 290 292 295 298 296 296 297 300
308 307 307 307 306 305 303 306 304 299 299 296 296 296 295 295 294 293 293 292 291 290 289 289 289 289 289 290 290 289 289 288 287 288 289 289 288 287 285 284 286 289 291 294 295 293 296 296 298
307 305 305 305 304 303 303 302 303 298 299 297 296 296 294 294 294 293 292 291 290 289 289 289 289 289 289 289 289 289 287 285 285 287 287 288 287 284 283 282 285 287 290 294 295 292 295 296 297
306 306 304 302 300 302 302 302 300 297 299 298 297 294 294 294 293 293 291 290 289 289 289 288 288 288 289 289 289 287 285 284 284 286 286 287 285 282 280 282 281 283 288 292 295 295 297 296 295
307 303 307 306 303 308 300 300 307 301 298 298 297 293 294 293 293 292 291 290 289 288 288 288 288 288 288 288 288 287 285 284 283 284 284 286 284 280 279 281 280 281 286 290 293 296 296 296 294
306 303 308 308 307 313 299 304 304 296 294 299 297 293 293 292 292 291 290 289 288 288 288 288 288 288 288 287 287 287 286 284 283 284 284 283 280 279 278 277 278 279 282 286 290 295 296 297 295
304 302 302 302 287 295 301 300 300 293 292 291 291 292 292 292 292 291 290 289 288 288 288 288 288 288 287 287 286 286 284 283 283 285 284 281 278 277 276 276 277 279 280 285 288 292 296 297 296
302 301 302 301 306 304 306 305 307 294 292 290 290 291 292 292 291 291 290 288 288 288 288 288 287 287 287 286 285 284 284 282 283 284 283 278 276 275 275 275 275 278 279 282 286 289 293 296 296
298 300 299 300 307 308 308 313 299 297 295 291 291 291 292 292 291 291 289 288 288 287 287 287 287 287 286 286 285 284 282 282 283 283 280 276 274 274 274 274 274 275 277 280 285 289 292 294 295
301 302 302 304 305 303 306 310 301 297 295 293 292 291 292 292 291 290 288 288 287 287 287 287 287 286 286 285 284 283 282 282 283 282 277 275 274 273 273 272 273 273 276 279 282 286 291 293 295
Wind_Speed
4 2 2 1 4 5 1 2 2 3 2 2 4 14 12 19 4 6 14 11 12 11 12 13 12 10 7 4 5 8 8 10 11 11 10 12 12 13 14 15 14 13 15 17 20 18 18 17 16
3 2 2 2 5 4 3 3 3 3 6 8 10 13 16 5 15 10 10 11 8 8 6 8 10 9 4 3 4 8 11 12 13 13 15 15 15 16 16 16 17 16 15 15 17 20 18 18 19
2 2 1 4 4 4 4 3 3 3 5 6 8 17 8 11 13 7 12 8 10 7 8 9 8 5 5 5 5 8 10 12 14 17 18 18 18 19 18 18 19 18 18 18 17 18 19 18 20
1 2 4 4 3 1 7 5 5 6 3 11 24 10 9 17 6 9 9 7 6 7 6 7 6 6 6 3 5 7 11 12 15 16 18 20 21 22 22 22 21 21 20 20 19 18 18 18 18
3 2 4 4 2 1 3 2 8 3 3 10 10 7 9 15 11 7 7 7 10 10 10 10 10 8 7 9 9 8 11 15 16 17 19 20 22 23 24 24 24 24 23 22 21 20 20 20 19
2 2 5 2 3 2 3 4 11 6 7 10 16 11 7 10 5 7 7 10 12 14 16 17 18 19 16 12 11 12 14 15 15 19 20 21 22 24 25 26 26 26 26 25 24 24 23 22 22
5 3 3 2 6 2 2 2 5 6 4 8 11 5 9 7 7 5 6 7 9 13 15 17 17 17 18 20 20 19 15 15 18 20 21 23 23 23 25 26 27 28 27 27 28 27 25 24 24
2 4 2 1 4 2 2 3 11 8 3 7 7 7 6 9 2 3 5 9 10 13 15 17 18 19 19 21 21 21 21 20 18 18 21 21 24 25 25 26 30 30 30 30 29 29 29 27 26
1 4 1 2 3 2 2 3 5 7 11 10 8 11 16 8 2 2 6 9 11 13 15 18 19 21 22 23 24 24 22 21 21 20 18 24 25 24 26 27 27 34 34 32 31 31 30 29 28
4 3 2 1 3 3 0 4 11 7 13 11 21 18 12 6 1 5 8 10 11 14 17 21 23 26 26 28 28 26 24 21 20 21 22 20 22 28 28 28 28 29 31 34 33 34 33 32 33
1 3 2 2 4 4 4 2 4 23 2 13 19 17 10 4 2 5 8 11 13 15 19 23 25 27 30 30 30 28 28 26 24 21 22 25 26 25 25 26 31 31 31 35 37 38 38 37 37
3 2 2 6 2 5 5 6 5 2 5 18 21 15 10 5 5 6 7 8 11 15 21 24 25 27 28 29 30 29 28 28 29 29 27 26 28 30 28 27 26 27 35 35 38 43 43 41 40
1 4 3 1 3 5 6 4 8 13 19 20 17 13 8 6 5 5 7 8 12 18 21 24 26 26 27 28 29 30 29 28 28 30 31 32 31 31 34 33 33 31 27 31 39 41 46 45 43
3 6 12 10 4 7 8 5 2 15 22 20 16 12 8 6 5 3 3 7 13 18 20 23 25 26 27 29 30 31 31 31 29 27 30 33 36 37 34 36 36 37 35 28 28 43 42 49 45
5 5 6 5 6 5 12 1 8 20 25 22 18 15 12 6 3 2 4 7 11 18 18 22 25 26 28 31 31 32 33 34 34 33 36 40 41 42 38 38 40 37 38 42 36 25 44 46 51
2 2 3 3 4 2 6 9 5 27 30 24 21 18 14 10 5 1 2 5 10 17 20 22 25 28 30 32 33 34 34 35 36 39 44 45 46 45 40 39 42 39 38 42 43 37 28 46 50
5 3 4 7 9 2 6 6 6 29 29 26 25 22 16 12 7 3 1 6 10 18 20 22 26 29 32 32 33 34 36 38 41 44 46 47 47 44 41 42 42 41 43 40 43 42 37 32 47
4 5 5 7 3 4 7 13 8 28 28 28 27 22 18 13 9 7 5 6 10 18 21 23 27 31 32 33 35 37 40 43 45 48 49 49 50 44 40 43 44 47 42 42 42 44 44 37 25
3 5 7 6 6 5 10 16 13 26 22 23 28 26 21 16 11 8 5 7 12 19 22 25 30 30 30 34 38 40 44 46 48 50 51 51 49 45 38 36 37 39 39 42 42 43 39 49 40
5 6 8 9 5 3 9 10 9 19 30 36 33 30 24 19 14 10 6 8 14 19 22 25 26 27 30 32 36 39 44 48 51 54 55 55 54 52 47 43 43 42 43 44 42 38 43 45 50
4 5 6 8 4 5 8 7 18 4 22 24 28 31 26 21 15 10 6 8 14 19 22 24 26 28 30 33 37 41 44 49 54 56 58 58 56 53 49 42 42 41 40 40 39 37 38 35 54
6 3 5 4 4 3 4 9 3 6 15 13 25 31 26 21 15 9 5 8 13 18 21 22 26 27 30 33 37 41 46 52 53 57 59 61 58 51 44 40 30 34 36 41 40 36 39 39 40
8 0 4 3 5 3 6 5 5 3 8 14 22 33 26 21 16 11 5 8 12 17 19 23 27 27 30 33 36 41 44 48 53 57 59 61 59 50 44 37 34 36 34 33 41 38 39 38 35
1 3 4 3 2 2 7 9 5 6 10 8 20 29 28 23 17 11 6 7 12 16 19 25 29 30 32 35 37 41 45 49 53 56 60 63 58 49 46 44 38 37 35 29 34 40 38 42 41
3 5 4 5 2 7 5 3 16 8 7 11 22 30 31 24 18 11 6 7 12 16 20 27 31 33 36 37 38 42 46 49 51 54 59 61 56 51 49 39 34 35 37 35 28 35 37 36 38
5 6 5 6 4 15 2 8 6 4 9 21 25 32 28 23 17 9 5 9 13 17 22 28 33 37 37 38 40 42 45 48 51 53 57 57 51 50 43 38 41 39 33 35 32 29 41 34 40
4 5 2 1 2 3 5 7 6 4 3 9 21 30 27 21 16 10 6 10 12 17 24 31 34 36 38 39 41 44 47 48 51 53 56 54 50 49 40 44 35 32 33 36 34 27 39 37 38
4 4 3 1 3 6 7 10 12 7 10 8 11 23 26 21 16 10 8 10 14 21 26 29 32 36 38 40 43 46 49 49 51 54 55 51 47 46 46 43 41 40 39 37 36 33 28 39 36
1 3 3 2 5 4 4 16 7 15 17 19 17 29 30 23 17 11 8 10 16 21 25 29 33 36 40 42 45 49 51 51 50 52 52 49 46 45 46 44 41 37 39 36 38 33 25 36 34
2 10 12 5 6 7 2 16 2 9 12 24 25 30 28 22 17 11 7 11 17 22 27 31 35 37 40 43 47 50 52 53 51 53 51 49 47 43 44 43 39 42 40 34 37 36 27 31 35
Wind_Direction
96 162 158 86 57 66 9 31 53 114 69 72 59 91 88 47 37 126 36 33 21 18 16 1 359 356 357 332 316 297 291 291 291 284 283 279 280 287 291 289 283 287 283 276 267 261 258 258 253
110 145 149 97 85 72 285 299 125 163 145 114 90 84 50 57 49 45 23 20 354 349 356 356 359 357 342 293 284 297 299 296 297 293 289 281 275 283 285 285 291 292 291 278 270 267 259 254 251
109 111 131 98 108 151 174 227 172 141 114 127 111 63 37 333 26 57 43 359 316 337 351 342 333 335 337 288 274 276 277 283 289 289 289 282 278 281 278 280 283 286 287 286 270 262 263 255 250
95 118 72 80 117 126 166 200 153 132 108 82 103 70 79 55 62 63 28 345 349 23 0 350 335 330 313 289 272 268 272 276 279 281 282 284 281 276 278 278 279 280 283 280 274 262 255 258 251
49 88 58 88 98 87 274 141 82 78 93 83 108 117 95 70 71 49 27 24 33 33 20 13 9 360 348 339 324 296 273 264 272 278 278 278 280 279 278 277 277 278 276 274 270 264 259 255 259
78 68 57 128 117 212 274 114 96 81 99 93 103 102 84 86 53 35 14 28 45 50 49 47 42 35 27 7 345 325 307 296 281 274 275 276 277 278 278 277 275 275 276 273 267 265 258 256 254
101 76 167 150 157 185 193 97 85 85 70 38 141 85 112 91 59 21 22 28 39 39 38 37 35 32 27 21 16 11 348 315 295 287 278 277 274 278 278 277 277 275 272 272 269 264 261 259 256
48 87 57 65 171 182 347 83 95 85 90 84 128 154 139 98 64 340 5 30 37 41 34 30 24 17 10 4 359 355 350 349 343 308 290 285 277 274 276 281 275 272 273 270 268 265 261 258 256
67 60 29 334 142 159 132 112 66 116 116 77 114 120 124 134 230 315 21 35 39 36 25 17 12 7 1 356 350 342 336 329 328 326 323 291 286 282 280 278 283 276 269 264 267 266 262 258 257
78 101 207 352 136 154 127 144 150 105 100 99 107 119 140 180 323 13 27 40 32 22 14 9 6 3 358 353 348 345 340 331 323 317 317 311 301 286 283 280 278 274 273 265 264 265 263 260 257
89 167 191 112 127 163 164 129 155 136 187 179 156 145 168 172 86 54 57 47 31 19 14 9 5 2 357 354 351 347 345 341 336 325 317 313 309 304 299 292 284 281 273 266 264 262 260 260 258
347 296 224 173 179 157 163 168 84 225 152 161 163 172 173 161 98 73 63 42 20 13 8 5 3 360 356 349 346 348 347 346 343 341 333 322 315 308 300 297 289 293 286 277 268 261 261 261 261
176 316 320 247 207 133 164 199 151 133 145 156 165 173 170 143 102 82 56 32 18 11 6 1 360 357 352 348 347 348 349 345 341 338 336 332 322 313 308 299 290 281 294 299 279 271 259 258 259
314 290 291 289 272 182 139 170 141 174 162 162 176 184 192 170 130 110 53 27 16 7 2 354 356 354 349 347 348 348 346 343 338 332 332 329 325 319 311 303 299 291 280 286 296 278 270 254 257
304 326 322 249 205 208 127 326 229 188 176 175 181 183 182 175 136 87 43 15 4 2 360 352 352 348 348 349 348 346 345 342 341 335 332 330 326 322 311 306 305 296 286 281 279 299 271 264 254
5 56 349 281 177 203 158 257 236 184 180 183 180 177 172 170 177 139 13 356 358 358 358 351 349 347 347 345 344 342 341 339 336 334 333 330 326 322 314 306 304 304 298 286 281 278 289 261 260
5 245 234 310 211 136 185 263 222 185 191 188 189 183 179 172 168 185 294 338 342 353 354 352 351 348 346 343 339 337 336 336 336 334 332 329 325 320 312 308 305 301 303 293 294 280 277 276 257
252 284 274 241 265 199 249 261 190 195 198 198 196 191 188 178 181 200 239 304 328 347 352 349 351 347 345 341 340 339 338 335 335 333 332 329 325 321 305 299 298 296 297 297 294 297 274 274 272
209 236 230 254 255 223 233 246 206 201 207 209 203 195 191 188 188 204 246 297 326 341 347 349 348 346 344 344 342 339 336 334 332 331 331 330 325 316 303 294 292 291 292 292 294 296 297 273 262
232 261 265 285 240 210 269 248 227 192 210 210 200 195 191 187 189 204 246 305 333 342 345 348 348 344 346 342 339 336 333 331 331 332 331 330 327 320 314 286 281 287 288 290 286 292 298 281 268
231 213 252 241 337 290 284 248 242 219 220 213 206 199 197 194 195 203 243 311 332 338 343 345 345 343 341 338 335 332 329 329 330 330 330 331 327 321 314 304 281 277 282 283 279 285 289 288 266
276 227 256 281 355 260 348 294 258 193 223 204 193 201 195 192 194 202 247 308 328 334 338 337 341 340 338 336 334 332 332 328 330 329 330 330 327 321 317 312 296 280 279 278 272 279 283 291 277
237 188 263 264 259 349 230 255 241 142 244 211 197 200 192 194 198 201 249 311 324 332 335 336 339 338 336 334 333 330 327 325 327 328 329 331 325 321 318 310 285 280 272 279 273 273 275 280 260
32 333 299 47 99 256 233 196 221 192 218 196 203 196 192 189 191 205 250 309 328 332 332 334 338 337 334 334 331 328 327 326 326 329 329 328 323 320 310 309 298 279 268 275 273 270 268 278 271
81 56 312 334 344 237 180 232 258 234 225 196 195 187 188 188 192 207 252 315 333 333 334 336 336 335 336 331 330 327 327 325 325 328 327 324 321 316 314 310 304 290 265 267 279 263 262 275 279
177 177 168 262 251 293 350 245 252 290 302 242 191 180 182 187 195 217 275 322 329 331 335 334 337 336 332 329 327 325 324 325 325 326 323 320 316 315 317 306 298 290 276 268 272 272 260 266 279
179 187 152 192 126 7 238 277 275 81 48 112 152 173 185 192 202 222 280 317 322 330 334 336 333 331 330 328 326 325 325 326 325 324 322 320 315 314 301 304 298 290 277 258 268 281 258 263 277
167 154 69 9 288 274 263 274 248 199 207 186 183 191 194 199 209 225 274 303 321 332 332 332 331 330 330 328 328 328 326 326 325 323 322 319 315 307 309 304 286 279 276 263 260 266 268 263 278
158 214 199 200 162 228 295 283 207 192 203 192 201 197 199 202 211 229 269 308 330 327 330 333 333 332 331 331 329 328 326 327 325 324 324 320 314 307 308 304 298 288 277 267 255 259 269 265 271
244 208 186 191 223 235 218 260 169 206 197 195 203 198 200 205 207 231 273 319 319 324 332 335 334 334 333 331 329 328 327 326 325 327 325 319 315 309 305 300 293 287 282 274 255 255 261 261 263